     2.10           OBSERVATION DATA    G (GPS)             RINEX VERSION / TYPE
teqc 2002Apr3 Duncan Agnew 20050511 23:58:27UTC             PGM / RUN BY / DATE
OSX 5.3|G3|cc|OSX 5.3+|G3+                                  COMMENT
BIT 2 OF LLI FLAGS DATA COLLECTED UNDER A/S CONDITION       COMMENT
ACUTE 2                                                     MARKER NAME
6893                                                        MARKER NUMBER
Alex Espinoza Nolte Engineering                             OBSERVER / AGENCY
220136893 TRIMBLE 4800 NP 1.20 / SP 1.43                    REC # / TYPE / VERS
N/A TRM4800                                                 ANT # / TYPE
 -2313868.0000 -4826603.0000  3456732.0000                  APPROX POSITION XYZ
        2.0000        0.0000        0.0000                  ANTENNA: DELTA H/E/N
     1     1                                                WAVELENGTH FACT L1/2
     7    C1    L1    L2    P1    P2    S1    S2            # / TYPES OF OBSERV
SNR is mapped to RINEX snr flag value [1-9]                 COMMENT
L1: 3 -> 1; 8 -> 5; 40 -> 9                                 COMMENT
L2: 1 -> 1; 5 -> 5; 60 -> 9                                 COMMENT
  2004     7     1    16    12    0.0000000     GPS         TIME OF FIRST OBS
                                                            END OF HEADER
 04  7  1 16 12  0.0000000  0  9G 3G 6G14G15G16G18G21G22G26
  23386658.1564     -99042.92259    -57086.91057                  23386656.1344
        44.5004         29.0004
  22967484.3474     118093.76659     67553.27057                  22967484.8144
        46.0004         33.2504
  24063698.5364     -86207.24259    -48461.55456                  24063696.9224
        39.5004         22.2504
  21678021.2574     -82434.51259    -47271.96557                  21678019.1564
        49.7504         39.0004
  24439636.3834      40213.54759     25167.33156                  24439634.6214
        42.7504         25.2504
  20715089.8804      16300.43859      9075.54658                  20715086.7044
        52.0004         45.0004
  20700607.3324       2141.53159      1150.95258                  20700603.5494
        52.2504         43.7504
  21288453.8044     -45687.96159    -26284.16458                  21288449.0764
        52.7504         43.0004
  23420043.1824     106592.09059     65036.65657                  23420041.9794
        42.5004         29.0004
 04  7  1 16 12 10.0000000  0  9G 3G 6G14G15G16G18G21G22G26
  23381435.5364    -126489.57849    -78473.90647                  23381433.6934
        45.5004         28.7504
  22973605.9674     150260.39149     92618.14647                  22973606.3584
        44.5004         33.0004
  24056280.2144    -125185.30149    -78834.00946                  24056279.3394
        39.0004         21.0004
  21673680.3044    -105244.19549    -65045.73547                  21673678.6494
        49.0004         38.5004
  24442486.9854      55195.06649     36841.24446                  24442485.5574
        42.5004         24.7504
  20715887.6854      20493.94149     12343.21148                  20715884.5254
        52.0004         44.0004
  20700685.8314       2554.99649      1473.12848                  20700681.4284
        52.2504         43.5004
  21286026.4714     -58442.31249    -36222.60948                  21286021.6934
        51.5004         42.0004
  23425729.8154     136474.19149     88321.37847                  23425728.5354
        43.5004         28.0004
 04  7  1 16 12 20.0000000  0  9G 3G 6G14G15G16G18G21G22G26
  23376210.1304    -153947.57449    -99869.73247                  23376208.2714
        45.2504         30.2504
  22979722.0034     182399.18049    117661.31447                  22979721.6004
        45.0004         32.5004
  24048856.0194    -164204.37949   -109238.48046                  24048853.8264
        39.5004         21.7504
  21669333.1174    -128091.95749    -82849.19347                  21669330.8534
        49.5004         38.5004
  24445334.5924      70156.14149     48499.18646                  24445332.7464
        41.2504         24.0004
  20716682.2224      24668.35949     15596.00448                  20716678.7304
        52.0004         44.5004
  20700760.9204       2948.82449      1780.00048                  20700757.2914
        52.0004         44.0004
  21283596.3214     -71212.20749    -46173.18148                  21283591.8694
        52.0004         42.2504
  23431414.0974     166346.82849    111598.75647                  23431412.7034
        43.5004         29.5004
 04  7  1 16 12 30.0000000  0  9G 3G 6G14G15G16G18G21G22G26
  23370988.1424    -181387.62949   -121251.59447                  23370987.2164
        44.5004         30.2504
  22985838.1484     214539.09049    142705.38747                  22985837.6674
        46.0004         32.7504
  24041428.5874    -203235.23849   -139652.15146                  24041426.9174
        40.2504         21.2504
  21664983.3714    -150948.46549   -100659.45547                  21664981.5884
        48.7504         38.5004
  24448183.2624      85125.94549     60163.95146                  24448181.7684
        40.5004         22.7504
  20717478.4424      28852.91449     18856.68048                  20717475.2724
        52.0004         44.2504
  20700837.4054       3352.21949      2094.31548                  20700834.0134
        53.0004         43.5004
  21281169.0284     -83968.48049    -56113.13248                  21281164.3754
        51.7504         42.0004
  23437102.6594     196239.10549    134891.40847                  23437101.6194
        43.2504         30.5004
 04  7  1 16 12 40.0000000  0  9G 3G 6G14G15G16G18G21G22G26
  23365774.0474    -208789.87949   -142603.97447                  23365772.5964
        44.7504         30.2504
  22991958.1454     246699.92249    167765.74847                  22991957.6764
        46.0004         32.7504
  24034003.0144    -242257.95749   -170059.42146                  24034001.0654
        42.0004         23.0004
  21660635.8964    -173793.90649   -118461.09247                  21660633.9944
        48.7504         38.5004
  24451036.1644     100124.13349     71850.88646                  24451035.6514
        40.2504         22.5004
  20718280.3964      33067.34049     22140.64948                  20718276.7664
        52.0004         44.7504
  20700920.0474       3785.00449      2431.55648                  20700916.5164
        52.5004         44.0004
  21278748.0734     -96691.32449    -66027.03448                  21278743.6014
        52.0004         42.5004
  23442798.5884     226170.66049    158214.67847                  23442797.1774
        43.0004         29.7504
 04  7  1 16 12 50.0000000  0  9G 3G 6G14G15G16G18G21G22G26
  23360568.7884    -236145.12549   -163919.75447                  23360566.8984
        45.5004         30.2504
  22998083.6304     278890.65649    192849.41647                  22998083.1294
        46.0004         32.7504
  24026580.2414    -281263.37149   -200453.25746                  24026578.8014
        40.5004         24.5004
  21656292.6974    -196619.14549   -136246.99047                  21656290.9724
        48.2504         39.0004
  24453897.4334     115159.69949     83566.81246                  24453896.1874
        42.0004         23.0004
  20719089.9814      37320.75449     25454.99548                  20719086.2014
        52.5004         44.5004
  20701009.4574       4256.36349      2798.83248                  20701006.0264
        52.7504         43.7504
  21276334.8684    -109371.69549    -75907.84548                  21276330.3854
        51.2504         42.7504
  23448503.3164     256150.47349    181575.55647                  23448502.4374
        44.7504         29.5004
 04  7  1 16 13  0.0000000  0  9G 3G 6G14G15G16G18G21G22G26
  23355372.1944    -263447.61749   -185194.41147                  23355371.5464
        44.0004         30.5004
  23004216.2814     311116.91049    217960.75747                  23004215.6534
        45.0004         32.2504
  24019162.8674    -320245.63349   -230829.00546                  24019160.5574
        40.7504         23.5004
  21651953.8054    -219418.46949   -154012.70447                  21651951.9594
        48.0004         38.5004
  24456767.4714     130238.27049     95316.35246                  24456765.6244
        41.5004         23.0004
  20719907.8784      41618.67649     28804.01148                  20719904.0954
        51.7504         44.2504
  20701107.6484       4771.96949      3200.59748                  20701104.0794
        51.7504         43.7504
  21273931.1134    -122003.96549    -85751.17148                  21273926.3144
        51.2504         43.0004
  23454218.3844     286184.18449    204978.41347                  23454217.3704
        42.5004         30.2504
 04  7  1 16 13 10.0000000  0  9G 3G 6G14G15G16G18G21G22G26
  23350188.2894    -290693.65649   -206425.07347                  23350186.9574
        44.5004         29.5004
  23010355.8484     343382.17249    243102.50447                  23010355.2584
        45.0004         31.5004
  24011749.8184    -359201.08249   -261183.87146                  24011747.8144
        42.0004         25.2504
  21647621.0084    -242188.27749   -171755.41347                  21647619.1504
        48.7504         39.0004
  24459645.6604     145363.23849    107102.02346                  24459643.9104
        42.5004         22.5004
  20720734.8334      45964.62549     32190.46548                  20720731.2844
        52.0004         44.0004
  20701214.9304       5335.41849      3639.64248                  20701211.1564
        52.0004         44.0004
  21271537.0714    -134584.49249    -95554.17348                  21271532.2734
        52.0004         42.5004
  23459944.4784     316275.14849    228425.90447                  23459943.8374
        42.2504         30.0004
 04  7  1 16 13 20.0000000  0  9G 3G 6G14G15G16G18G21G22G26
  23345014.7334    -317881.16449   -227610.13847                  23345013.3784
        44.5004         29.7504
  23016503.5064     375688.30149    268276.05747                  23016503.2824
        44.5004         31.5004
  24004342.2594    -398127.65649   -291516.28946                  24004340.4314
        39.5004         24.0004
  21643294.2954    -264926.53149   -189473.52347                  21643292.2244
        46.5004         38.2504
  24462533.0974     160536.54749    118925.34346                  24462531.2674
        41.5004         22.5004
  20721571.2594      50360.57849     35615.87948                  20721568.1124
        52.2504         43.7504
  20701331.6284       5948.68049      4117.49948                  20701327.9084
        52.0004         43.5004
  21269153.4724    -147111.39149   -105315.39048                  21269148.8064
        50.5004         42.0004
  23465681.4104     346425.30549    251919.50347                  23465680.5694
        41.7504         28.7504
 04  7  1 16 13 30.0000000  0  9G 3G 6G14G15G16G18G21G22G26
  23339852.4974    -345007.24249   -248747.31247                  23339851.2334
        45.0004         29.7504
  23022659.8414     408038.01249    293483.62247                  23022659.0954
        46.0004         32.0004
  23996941.1644    -437022.48049   -321823.92946                  23996939.0104
        41.5004         24.7504
  21638973.9834    -287630.30149   -207164.77247                  21638971.5914
        49.0004         38.2504
  24465429.6654     175760.99249    130788.53446                  24465428.2754
        41.5004         22.7504
  20722417.9184      54809.35949     39082.46148                  20722413.9594
        52.0004         44.0004
  20701458.3634       6614.69149      4636.45748                  20701454.6224
        52.2504         43.5004
  21266780.0204    -159581.77749   -115032.56748                  21266775.6104
        51.2504         42.0004
  23471430.9044     376637.39549    275461.35047                  23471430.1414
        43.2504         29.5004
 04  7  1 16 13 40.0000000  0  9G 3G 6G14G15G16G18G21G22G26
  23334702.4234    -372073.28949   -269837.75547                  23334701.1604
        45.0004         30.2504
  23028823.6644     440429.78549    318723.93947                  23028823.8244
        46.0004         32.0004
  23989544.8414    -475886.94549   -352107.89846                  23989543.3974
        40.7504         24.7504
  21634659.6074    -310301.08649   -224830.31847                  21634657.5034
        48.2504         38.7504
  24468336.3464     191034.85549    142690.18446                  24468334.7844
        40.0004         21.7504
  20723274.2024      59309.35949     42588.95048                  20723270.4534
        51.5004         44.0004
  20701594.7554       7331.99249      5195.40848                  20701591.2354
        52.5004         44.0004
  21264417.6404    -171997.26249   -124706.96148                  21264413.0674
        51.2504         42.7504
  23477192.0934     406909.70749    299050.17747                  23477190.6314
        42.0004         29.0004
 04  7  1 16 13 50.0000000  0  9G 3G 6G14G15G16G18G21G22G26
  23329563.1734    -399078.65249   -290880.86947                  23329562.2424
        45.0004         30.0004
  23034995.4124     472864.00849    343997.35247                  23034995.1234
        45.0004         31.5004
  23982155.4694    -514720.32449   -382367.66347                  23982153.9474
        40.0004         26.2504
  21630351.9934    -332938.28949   -242469.68148                  21630350.1874
        48.0004         39.7504
  24471252.4074     206358.64149    154630.77946                  24471251.0274
        41.5004         22.5004
  20724140.4454      63861.12949     46135.78148                  20724136.1504
        52.0004         44.2504
  20701740.9274       8101.14149      5794.73548                  20701737.5064
        52.0004         44.2504
  21262065.4674    -184357.23849   -134338.11648                  21262061.1164
        50.5004         43.0004
  23482964.1534     437242.80949    322686.34647                  23482962.7254
        42.5004         29.0004
 04  7  1 16 14  0.0000000  0  9G 3G 6G14G15G16G18G21G22G26
  23324435.9874    -426021.44149   -311875.22347                  23324434.6644
        45.0004         31.5004
  23041175.6094     505342.48049    369305.21247                  23041176.0904
        45.5004         30.5004
  23974771.3304    -553520.77049   -412601.71647                  23974769.8804
        38.7504         26.5004
  21626051.1184    -355540.05149   -260081.44748                  21626048.7404
        48.2504         39.5004
  24474178.6104     221734.02749    166611.64346                  24474177.1514
        40.5004         22.5004
  20725016.7784      68466.42649     49724.32048                  20725013.4254
        51.7504         44.5004
  20701897.6764       8924.00849      6435.91848                  20701893.8744
        51.5004         44.0004
  21259724.5954    -196659.86749   -143924.57848                  21259719.6934
        51.0004         43.0004
  23488747.7484     467638.34049    346371.16247                  23488747.0804
        41.5004         30.0004
 04  7  1 16 14 10.0000000  0  9G 3G 6G14G15G16G18G21G22G26
  23319320.2384    -452904.66849   -332823.20647                  23319319.2864
        44.7504         30.5004
  23047364.0334     537861.93049    394645.03047                  23047363.3184
        44.2504         29.5004
  23967394.0834    -592291.23449   -442812.51146                  23967392.1414
        39.5004         24.0004
  21621756.0934    -378109.42249   -277667.97547                  21621754.0804
        48.2504         39.2504
  24477114.0174     237157.79349    178630.15646                  24477111.6934
        41.0004         22.7504
  20725902.7714      73122.04749     53352.06848                  20725899.3394
        52.0004         44.5004
  20702063.9474       9797.52749      7116.56848                  20702060.3044
        52.0004         44.0004
  21257393.6334    -208908.37949   -153468.87148                  21257389.1184
        50.5004         42.5004
  23494543.7474     498092.95749    370102.00847                  23494542.0454
        42.0004         28.7504
 04  7  1 16 14 20.0000000  0  9G 3G 6G14G15G16G18G21G22G26
  23314215.9604    -479728.36349   -353724.75947                  23314214.4674
        45.0004         30.7504
  23053560.4384     570422.20749    420016.64947                  23053559.5634
        44.7504         29.5004
  23960021.6374    -631031.80949   -472999.89847                  23960020.5014
        38.5004         26.0004
  21617467.6364    -400646.41449   -295229.26747                  21617465.4904
        47.2504         39.0004
  24480058.1384     252629.78949    190686.27146                  24480055.9184
        41.0004         23.0004
  20726798.0304      77827.83649     57018.91748                  20726794.4894
        52.5004         44.0004
  20702239.9984      10721.59849      7836.62148                  20702236.4104
        51.7504         43.7504
  21255073.3154    -221102.84049   -162971.04448                  21255068.3894
        50.0004         42.5004
  23500350.1814     528606.62949    393878.89847                  23500348.6434
        42.2504         29.2504
 04  7  1 16 14 30.0000000  0  9G 3G 6G14G15G16G18G21G22G26
  23309121.3584    -506500.98049   -374586.52547                  23309119.9474
        45.2504         30.0004
  23059762.1914     603014.55949    445413.27347                  23059761.7394
        44.5004         30.0004
  23952653.9634    -669750.94549   -503170.65546                  23952652.2484
        39.5004         22.5004
  21613183.2854    -423159.64549   -312772.04047                  21613181.2494
        49.0004         38.7504
  24483009.3934     268141.29749    202773.09346                  24483007.6354
        41.5004         23.5004
  20727701.4294      82575.19549     60718.15648                  20727698.4694
        52.2504         44.0004
  20702423.6974      11687.62949      8589.36248                  20702420.2164
        51.5004         43.5004
  21252761.4524    -233252.02749   -172437.93648                  21252756.8744
        51.7504         42.0004
  23506165.7664     559170.43449    417694.81347                  23506164.5984
        40.7504         28.5004
 04  7  1 16 14 40.0000000  0  9G 3G 6G14G15G16G18G21G22G26
  23304036.5094    -533219.49649   -395406.17847                  23304035.7814
        45.5004         30.0004
  23065971.3144     635642.07849    470837.26647                  23065971.3724
        44.5004         28.5004
  23945290.8384    -708445.52049   -533322.31546                  23945288.7464
        38.5004         22.2504
  21608904.0554    -445646.03149   -330293.91847                  21608902.0154
        49.2504         37.7504
  24485968.8694     283695.28549    214893.02446                  24485967.7994
        41.7504         24.7504
  20728613.5974      87367.08249     64452.07448                  20728609.7774
        52.2504         43.2504
  20702616.0724      12698.69949      9377.18648                  20702612.1384
        52.0004         42.7504
  21250458.5374    -245352.83649   -181867.14748                  21250454.0874
        51.7504         41.5004
  23511992.5644     589787.50449    441552.24747                  23511991.3014
        43.0004         27.7504
 04  7  1 16 14 50.0000000  0  9G 3G 6G14G15G16G18G21G22G26
  23298962.2974    -559886.38749   -416185.52747                  23298961.3424
        45.0004         30.5004
  23072185.8754     668301.87549    496286.46847                  23072185.8824
        44.0004         30.7504
  23937930.9294    -747118.00049   -563456.65746                  23937929.8964
        38.0004         23.5004
  21604630.4054    -468108.07849   -347796.77947                  21604628.0204
        45.5004         39.2504
  24488937.0344     299289.12149    227044.10846                  24488935.7964
        41.0004         24.2504
  20729533.4064      92200.95749     68218.74548                  20729529.7724
        51.7504         44.5004
  20702816.8834      13752.37149     10198.25148                  20702813.3374
        52.0004         44.0004
  21248164.5814    -257407.77349   -191260.59548                  21248160.1354
        48.2504         42.7504
  23517828.8014     620455.03949    465449.03147                  23517826.6764
        42.5004         30.0004
 04  7  1 16 15  0.0000000  0  9G 3G 6G14G15G16G18G21G22G26
  23293897.9694    -586501.78149   -436924.78747                  23293896.8464
        45.0004         30.7504
  23078406.7964     700993.75049    521760.61947                  23078406.9444
        44.0004         30.0004
  23930575.8064    -785768.47349   -593573.85946                  23930574.6194
        37.5004         23.0004
  21600360.8894    -490545.94149   -365280.84548                  21600358.1924
        49.5004         39.5004
  24491911.4454     314922.34049    239225.77946                  24491910.7234
        41.0004         24.0004
  20730461.1884      97076.45749     72017.82948                  20730457.4314
        52.0004         44.0004
  20703025.1504      14848.34849     11052.24648                  20703021.4624
        51.7504         44.0004
  21245879.7384    -269417.14149   -200618.53148                  21245874.7444
        51.7504         42.2504
  23523673.3474     651172.68849    489384.82347                  23523672.4694
        41.7504         28.7504
 04  7  1 16 15 10.0000000  0  9G 3G 6G14G15G16G18G21G22G26
  23288840.8944    -613073.90249   -457630.33047                  23288840.0354
        45.2504         30.5004
  23084632.5954     733709.28949    547253.22247                  23084632.2404
        43.7504         29.5004
  23923224.0034    -824405.24249   -623680.44446                  23923222.6194
        37.5004         22.7504
  21596093.3234    -512967.89549   -382752.49048                  21596091.4434
        48.0004         40.0004
  24494893.2964     330586.61749    251431.68446                  24494891.9214
        40.7504         24.5004
  20731395.4864     101985.18049     75842.81748                  20731391.3054
        52.0004         44.7504
  20703240.1864      15978.30949     11932.73748                  20703236.6094
        52.5004         44.2504
  21243601.1954    -281389.29749   -209947.48248                  21243596.4304
        51.0004         43.0004
  23529527.0164     681932.05149    513353.15247                  23529525.8684
        42.2504         29.2504
 04  7  1 16 15 20.0000000  0  9G 3G 6G14G15G16G18G21G22G26
  23283793.4954    -639601.39849   -478301.08647                  23283791.8454
        46.0004         31.0004
  23090862.7644     766449.71549    572765.22947                  23090862.3464
        44.0004         29.2504
  23915874.4734    -863026.85949   -653775.17346                  23915873.3004
        37.2504         22.5004
  21591830.3604    -535372.63749   -400210.72147                  21591827.9304
        47.0004         39.0004
  24497879.9904     346283.05949    263662.63746                  24497878.5264
        42.0004         23.0004
  20732335.9444     106928.39849     79694.66948                  20732332.3554
        51.7504         44.2504
  20703461.9034      17143.67249     12840.80748                  20703458.2934
        52.0004         44.0004
  21241330.1554    -293323.02349   -219246.48548                  21241324.9734
        51.0004         42.2504
  23535388.2854     712734.25849    537354.83947                  23535387.2274
        42.5004         28.7504
 04  7  1 16 15 30.0000000  0  9G 3G 6G14G15G16G18G21G22G26
  23278753.0844    -666084.97749   -498937.62547                  23278752.1834
        45.5004         31.0004
  23097098.0334     799214.07449    598295.89547                  23097097.3574
        44.2504         30.7504
  23908527.6344    -901634.05149   -683858.68546                  23908526.5324
        36.7504         22.5004
  21587569.8704    -557760.85949   -417656.08847                  21587567.7104
        48.5004         39.0004
  24500872.9314     362010.83649    275918.06446                  24500871.1424
        40.7504         22.2504
  20733283.1164     111905.26249     83572.72248                  20733279.1584
        52.0004         44.0004
  20703690.5574      18343.63749     13775.83148                  20703686.6114
        51.7504         43.5004
  21239066.6684    -305219.07049   -228516.13948                  21239061.8834
        52.0004         42.0004
  23541257.5934     743578.51249    561389.34047                  23541256.9434
        41.5004         28.2504
 04  7  1 16 15 40.0000000  0  9G 3G 6G14G15G16G18G21G22G26
  23273722.0284    -692525.59449   -519540.67347                  23273720.4094
        45.7504         30.5004
  23103336.9404     832001.28149    623844.33547                  23103337.0994
        44.0004         30.0004
  23901182.7134    -940227.78949   -713931.69846                  23901182.1734
        37.7504         22.7504
  21583312.3904    -580133.65649   -435089.44447                  21583310.1794
        47.0004         39.2504
  24503871.2784     377768.79349    288196.95346                  24503869.4424
        40.5004         22.7504
  20734236.3854     116914.68849     87476.18048                  20734232.9114
        52.5004         44.0004
  20703925.0194      19577.19149     14737.05448                  20703921.4744
        51.7504         43.7504
  21236809.4914    -317078.48049   -237757.22948                  21236804.8684
        50.2504         42.7504
  23547134.8874     774463.55149    585455.56747                  23547134.5154
        41.2504         28.7504
 04  7  1 16 15 50.0000000  0  9G 3G 6G14G15G16G18G21G22G26
  23268698.7114    -718924.10249   -540110.93647                  23268697.2224
        45.2504         30.0004
  23109580.5464     864810.28549    649409.75447                  23109581.0264
        44.0004         29.0004
  23893841.3914    -978808.90249   -743994.85346                  23893840.0904
        37.5004         23.0004
  21579057.9894    -602491.89149   -452511.44547                  21579055.6684
        48.5004         38.5004
  24506875.3134     393555.87149    300498.57646                  24506873.9244
        38.7504         21.5004
  20735195.5254     121955.69949     91404.25448                  20735192.0024
        51.7504         43.7504
  20704166.1674      20843.42249     15723.73148                  20704162.5894
        51.2504         43.0004
  21234559.6064    -328902.25849   -246970.55748                  21234555.4654
        51.0004         42.2504
  23553020.1684     805388.30549    609552.74947                  23553018.9134
        41.5004         29.2504
 04  7  1 16 16  0.0000000  0  9G 3G 6G14G15G16G18G21G22G26
  23263682.8004    -745279.96149   -560647.94947                  23263681.8354
        45.2504         31.0004
  23115828.0464     897641.36749    674992.40747                  23115828.2044
        44.0004         29.5004
  23886502.5334   -1017376.85249   -774047.78746                  23886501.2854
        38.5004         23.0004
  21574806.3604    -624834.95749   -469921.61747                  21574803.9564
        48.0004         39.2504
  24509885.5414     409372.44549    312823.08546                  24509884.3254
        39.5004         21.5004
  20736161.1654     127028.68049     95357.21848                  20736157.1594
        52.0004         44.0004
  20704413.1584      22142.93449     16736.31948                  20704409.7534
        52.0004         43.7504
  21232316.5104    -340689.96549   -256155.78348                  21232312.2804
        51.5004         43.0004
  23558912.9464     836353.19149    633681.20347                  23558911.6924
        42.5004         29.0004
 04  7  1 16 16 10.0000000  0  9G 3G 6G14G15G16G18G21G22G26
  23258675.1284    -771594.74649   -581152.95247                  23258673.8784
        45.5004         30.7504
  23122079.6834     930492.93849    700591.00647                  23122079.1064
        44.5004         29.7504
  23879165.6034   -1055933.11749   -804091.61346                  23879164.7244
        38.2504         24.0004
  21570556.8314    -647164.57049   -487321.31848                  21570554.4594
        49.0004         39.7504
  24512900.7584     425216.70349    325169.26746                  24512899.1694
        40.5004         22.0004
  20737131.8944     132131.91449     99333.76048                  20737128.5994
        51.7504         44.0004
  20704666.5454      23474.05149     17773.56248                  20704663.0604
        51.0004         43.5004
  21230079.6854    -352443.31249   -265314.23148                  21230075.1254
        51.0004         42.5004
  23564812.5364     867356.39549    657839.51347                  23564811.2604
        41.2504         29.5004
 04  7  1 16 16 20.0000000  0  9G 3G 6G14G15G16G18G21G22G26
  23253675.5484    -797868.56249   -601626.06047                  23253675.0394
        45.7504         31.2504
  23128334.9374     963364.58649    726205.24747                  23128334.4794
        44.5004         30.0004
  23871831.2124   -1094477.84449   -834126.43546                  23871829.2604
        39.0004         24.7504
  21566310.4904    -669480.84849   -504710.62348                  21566307.8644
        49.5004         40.2504
  24515920.9144     441088.37149    337536.74746                  24515918.7254
        41.0004         22.2504
  20738108.6984     137265.19549    103333.71948                  20738105.1234
        51.7504         44.7504
  20704925.9514      24836.52749     18835.22148                  20704922.4694
        51.7504         44.0004
  21227850.0954    -364162.48449   -274446.05448                  21227844.9124
        52.0004         42.7504
  23570719.6914     898397.59449    682027.47647                  23570718.1884
        43.0004         29.5004
 04  7  1 16 16 30.0000000  0  9G 3G 6G14G15G16G18G21G22G26
  23248683.6694    -824102.72349   -622068.24847                  23248682.2804
        45.7504         32.0004
  23134593.8914     996254.82449    751833.97747                  23134592.9664
        45.0004         30.5004
  23864497.3804   -1133012.30949   -864153.27646                  23864496.5364
        40.0004         25.2504
  21562065.7944    -691785.14849   -522090.59448                  21562063.2874
        47.0004         40.0004
  24518946.0414     456985.84449    349924.39846                  24518944.2384
        40.7504         22.5004
  20739091.0064     142426.94149    107355.85948                  20739087.3274
        51.5004         44.5004
  20705190.9004      26229.05949     19920.31848                  20705187.0154
        51.5004         43.7504
  21225625.8734    -375848.93749   -283552.37448                  21225621.4304
        50.0004         42.5004
  23576633.6184     929475.27349    706243.80847                  23576631.8664
        43.7504         29.5004
 04  7  1 16 16 40.0000000  0  9G 3G 6G14G15G16G18G21G22G26
  23243699.2734    -850295.25049   -642477.98847                  23243698.0694
        46.0004         31.7504
  23140856.6694    1029165.44149    777478.61847                  23140856.3734
        45.5004         30.0004
  23857167.1614   -1171534.64549   -894170.65246                  23857165.3534
        39.5004         24.7504
  21557824.0374    -714075.57049   -539459.74748                  21557821.5194
        50.0004         39.5004
  24521976.3564     472910.99649    362333.59946                  24521975.0344
        40.5004         22.7504
  20740079.0144     147619.04349    111401.64948                  20740075.2424
        51.7504         44.7504
  20705461.9544      27653.59449     21030.32848                  20705458.3444
        51.7504         43.5004
  21223408.7014    -387500.81249   -292631.75548                  21223404.3784
        52.2504         42.7504
  23582554.0394     960591.19949    730489.97947                  23582553.5594
        43.0004         29.0004
 04  7  1 16 16 50.0000000  0  9G 3G 6G14G15G16G18G21G22G26
  23238721.9984    -876450.71149   -662858.86147                  23238721.0044
        45.7504         31.0004
  23147122.6484    1062091.87549    803135.55647                  23147121.7514
        44.7504         31.0004
  23849838.1944   -1210049.27749   -924182.08046                  23849835.9604
        40.0004         22.7504
  21553584.1654    -736356.62949   -556821.61748                  21553582.0124
        49.2504         39.5004
  24525011.9474     488859.19949    374760.73246                  24525009.8994
        41.0004         22.5004
  20741072.3654     152836.98849    115467.58048                  20741068.3694
        51.7504         44.2504
  20705738.0414      29105.52749     22161.70848                  20705733.9184
        52.0004         43.0004
  21221196.9044    -399122.75049   -301687.80148                  21221192.2234
        51.5004         43.0004
  23588482.2304     991740.57849    754762.19547                  23588481.2984
        43.0004         30.0004
 04  7  1 16 17  0.0000000  0  9G 3G 6G14G15G16G18G21G22G26
  23233752.7304    -902565.72349   -683208.20047                  23233751.4784
        46.0004         31.0004
  23153391.3244    1095037.05949    828807.10147                  23153391.3754
        45.2504         31.0004
  23842510.8624   -1248552.86349   -954184.84546                  23842508.5764
        39.7504         22.5004
  21549346.4884    -758625.07449   -574173.63747                  21549344.5004
        49.5004         39.2504
  24528051.4014     504833.52349    387208.24146                  24528049.8274
        41.5004         22.5004
  20742070.5874     158083.84049    119556.03448                  20742067.0664
        52.2504         43.7504
  20706020.5854      30588.07849     23316.93448                  20706016.8384
        51.2504         43.0004
  21218991.8664    -410711.45749   -310717.96248                  21218986.9974
        52.0004         42.5004
  23594416.5954    1022926.62549    779062.99247                  23594414.9334
        42.2504         29.5004
 04  7  1 16 17 10.0000000  0  9G 3G 6G14G15G16G18G21G22G26
  23228790.0394    -928643.48449   -703528.51847                  23228788.8794
        46.5004         31.5004
  23159663.8364    1127997.80949    854490.77847                  23159663.9374
        45.2504         31.0004
  23835185.7114   -1287048.53949   -984181.48846                  23835183.7314
        37.2504         24.0004
  21545110.8114    -780884.08649   -591518.32447                  21545108.6054
        50.0004         39.2504
  24531095.1154     520830.63349    399673.50346                  24531093.8694
        41.7504         22.5004
  20743073.9254     163356.29349    123664.43748                  20743070.0724
        52.5004         44.5004
  20706307.9914      32098.07849     24493.55148                  20706304.2434
        51.2504         43.5004
  21216792.2524    -422270.21949   -319724.79448                  21216787.5314
        52.0004         42.2504
  23600357.3684    1054145.92249    803389.73647                  23600356.4284
        43.5004         29.2504
 04  7  1 16 17 20.0000000  0  9G 3G 6G14G15G16G18G21G22G26
  23223834.7614    -954682.78949   -723818.87547                  23223833.8194
        45.2504         31.7504
  23165939.0794    1160975.04749    880187.28947                  23165939.1194
        44.7504         30.2504
  23827861.6684   -1325535.03949  -1014170.92747                  23827859.9244
        38.5004         25.7504
  21540877.3114    -803132.57849   -608854.80748                  21540875.1024
        49.5004         39.5004
  24534143.7064     536851.47749    412157.29346                  24534142.1374
        41.5004         22.0004
  20744082.3024     168655.42649    127793.62748                  20744078.4414
        52.2504         45.0004
  20706600.2644      33636.70349     25692.48748                  20706596.8594
        51.5004         43.5004
  21214598.4034    -433798.02049   -328707.47648                  21214593.7534
        51.7504         42.5004
  23606304.7334    1085399.48849    827743.12647                  23606303.5224
        40.0004         28.0004
 04  7  1 16 17 30.0000000  0  9G 3G 6G14G15G16G18G21G22G26
  23218887.6944    -980681.19149   -744077.34247                  23218886.4044
        45.7504         31.7504
  23172217.8024    1193971.09049    905898.47047                  23172217.8904
        45.5004         31.0004
  23820540.5764   -1364009.94549  -1044151.35547                  23820538.6374
        40.5004         25.7504
  21536646.1214    -825368.03149   -626181.13448                  21536643.6204
        49.2504         40.0004
  24537197.3214     552898.33649    424661.31046                  24537196.0884
        39.2504         22.2504
  20745096.2524     173983.59849    131945.43748                  20745092.7934
        52.2504         44.5004
  20706898.9694      35206.41049     26915.61448                  20706895.4664
        51.7504         43.7504
  21212411.1184    -445292.43049   -337664.17048                  21212406.4464
        52.5004         43.0004
  23612258.8674    1116689.71149    852125.09047                  23612257.9994
        40.2504         28.7504
 04  7  1 16 17 40.0000000  0  8G 3G 6G14G15G18G21G22G26
  23213947.3984   -1006641.59049   -764306.22047                  23213946.0954
        45.7504         31.0004
  23178500.0574    1226982.83649    931621.87547                  23178499.4534
        45.5004         31.5004
  23813220.5744   -1402476.18049  -1074125.02446                  23813218.9924
        40.5004         25.2504
  21532416.8184    -847593.41449   -643499.61948                  21532414.2594
        50.0004         40.0004
  20746115.0304     179337.73849    136117.50848                  20746111.3634
        52.2504         44.7504
  20707203.1734      36804.17649     28160.62948                  20707199.3784
        52.0004         44.0004
  21210229.6644    -456756.55949   -346597.25348                  21210224.7574
        52.2504         43.7504
  23618219.7454    1148013.28149    876533.05947                  23618218.4344
        41.7504         28.7504
 04  7  1 16 17 50.0000000  0  8G 3G 6G14G15G18G21G22G26
  23209015.5144   -1032561.77749   -784503.76947                  23209013.7334
        46.0004         32.0004
  23184785.4594    1260012.38349    957359.14847                  23184784.6634
        45.5004         31.0004
  23805903.0964   -1440931.52749  -1104090.23347                  23805900.7244
        40.0004         26.2504
  21528189.3804    -869806.55949   -660808.55748                  21528186.9164
        50.5004         39.5004
  20747139.0664     184719.93849    140311.42548                  20747135.4564
        51.7504         44.5004
  20707513.0064      38432.19149     29429.21048                  20707509.2204
        51.7504         44.0004
  21208054.2674    -468188.23049   -355505.03948                  21208049.3094
        52.2504         43.0004
  23624186.5374    1179372.21549    900968.57847                  23624186.2804
        41.0004         27.7504
 04  7  1 16 18  0.0000000  0  8G 3G 6G14G15G18G21G22G26
  23204089.7854   -1058444.83249   -804672.36147                  23204088.4224
        46.0004         31.7504
  23191073.8724    1293056.28549    983107.63747                  23191073.0394
        45.5004         29.7504
  23798586.1524   -1479379.06649  -1134049.33047                  23798584.8154
        39.7504         26.0004
  21523964.3964    -892010.58249   -678110.38548                  21523962.1654
        50.5004         39.5004
  20748168.1884     190126.98449    144524.70948                  20748164.1584
        52.0004         44.5004
  20707828.1394      40087.31349     30718.91448                  20707824.4964
        51.2504         43.2504
  21205884.6784    -479590.69549   -364390.07748                  21205879.9324
        52.5004         42.5004
  23630160.5904    1210763.34449    925429.17247                  23630159.6204
        39.0004         28.2504
 04  7  1 16 18 10.0000000  0  8G 3G 6G14G15G18G21G22G26
  23199171.9144   -1084290.19949   -824811.60147                  23199170.3504
        45.7504         31.5004
  23197364.1714    1326115.10249   1008867.73147                  23197363.5864
        45.5004         31.0004
  23791271.1804   -1517818.24649  -1164001.91047                  23791270.3914
        39.5004         26.0004
  21519740.6934    -914204.98849   -695404.72647                  21519738.3834
        50.7504         39.2504
  20749201.8174     195559.27349    148757.66148                  20749198.0294
        52.2504         44.0004
  20708148.4644      41770.02349     32030.12248                  20708144.6084
        51.0004         43.2504
  21203720.5434    -490963.48049   -373251.97448                  21203715.3374
        52.0004         42.2504
  23636139.9264    1242186.97749    949915.08547                  23636139.0564
        39.5004         28.0004
 04  7  1 16 18 20.0000000  0  8G 3G 6G14G15G18G21G22G26
  23194262.2584   -1110091.70349   -844916.66447                  23194260.0724
        45.7504         30.2504
  23203659.2334    1359194.98049   1034644.21347                  23203659.1074
        45.0004         31.0004
  23783959.6854   -1556242.77349  -1193943.10246                  23783958.5244
        40.5004         25.5004
  21515519.8624    -936383.55149   -712686.73547                  21515518.1764
        50.0004         38.2504
  20750241.6194     201022.88749    153015.01748                  20750237.8854
        52.2504         44.0004
  20708474.7784      43486.49249     33367.61148                  20708471.1974
        51.5004         43.0004
  21201562.9744    -502300.45749   -382086.00448                  21201558.0654
        52.5004         42.2504
  23642127.6694    1273649.12149    974431.02347                  23642126.4204
        41.0004         28.2504
 04  7  1 16 18 30.0000000  0  8G 3G 6G14G15G18G21G22G26
  23189359.1374   -1135855.35549   -864992.21347                  23189357.5914
        45.7504         30.7504
  23209956.8234    1392289.49649   1060432.14847                  23209957.1164
        45.5004         30.5004
  23776649.2604   -1594658.59449  -1223877.45246                  23776647.7984
        38.5004         24.0004
  21511301.5484    -958552.30549   -729961.06548                  21511299.5744
        50.0004         39.5004
  20751286.0674     206511.72749    157292.02448                  20751282.4104
        52.2504         44.2504
  20708806.4674      45230.66849     34726.70348                  20708803.2514
        51.0004         43.7504
  21199411.3384    -513607.77049   -390896.88348                  21199406.3744
        53.0004         43.7504
  23648120.7044    1305143.64149    998972.20547                  23648119.5544
        42.0004         29.0004
 04  7  1 16 18 40.0000000  0  8G 3G 6G14G15G18G21G22G26
  23184463.0314   -1161581.69149   -885038.69847                  23184461.8694
        47.0004         31.5004
  23216257.0464    1425397.93849   1086230.89747                  23216256.8824
        44.7504         31.0004
  23769340.3164   -1633066.31249  -1253805.55746                  23769339.2014
        39.2504         24.0004
  21507084.6064    -980711.90649   -747228.28548                  21507082.4144
        50.5004         39.5004
  20752335.1664     212025.00849    161588.09748                  20752331.8854
        52.5004         44.5004
  20709143.8614      47001.93849     36106.92548                  20709140.0404
        51.7504         43.5004
  21197265.3104    -524886.02749   -399685.13248                  21197260.5344
        53.0004         43.0004
  23654119.9204    1336669.62149   1023537.89047                  23654118.8654
        41.7504         28.2504
 04  7  1 16 18 50.0000000  0  8G 3G 6G14G15G18G21G22G26
  23179574.9974   -1187271.00049   -905056.33547                  23179573.5304
        46.7504         32.0004
  23222560.3224    1458519.93449   1112040.21647                  23222560.3394
        45.0004         31.5004
  23762032.6084   -1671466.21149  -1283727.52847                  23762031.5344
        38.5004         25.7504
  21502869.6904   -1002862.62949   -764488.58648                  21502867.2784
        50.5004         40.2504
  20753388.6764     217562.39149    165902.93548                  20753384.9584
        52.0004         45.2504
  20709485.8594      48800.00449     37508.01148                  20709482.4494
        51.5004         43.7504
  21195124.5104    -536135.65249   -408451.07148                  21195119.7654
        52.5004         43.5004
  23660124.7314    1368226.77749   1048127.84947                  23660123.9244
        42.5004         29.0004
 04  7  1 16 19  0.0000000  0  8G 3G 6G14G15G18G21G22G26
  23174693.8474   -1212921.73049   -925043.89347                  23174692.5094
        46.7504         32.0004
  23228865.7014    1491656.93449   1137861.24847                  23228865.3004
        45.5004         30.2504
  23754728.0214   -1709856.65649  -1313642.16246                  23754726.0314
        40.5004         22.5004
  21498656.4264   -1025002.93049   -781740.76048                  21498653.9464
        50.5004         40.0004
  20754447.7364     223125.24249    170237.62548                  20754444.5644
        52.0004         44.5004
  20709833.6464      50626.40249     38931.16548                  20709829.8504
        50.7504         43.7504
  21192989.3264    -547355.14849   -417193.53448                  21192984.2454
        52.5004         43.0004
  23666136.2874    1399816.33249   1072743.09547                  23666135.1514
        40.7504         27.5004
 04  7  1 16 19 10.0000000  0  8G 3G 6G14G15G18G21G22G26
  23169819.7554   -1238534.44549   -945001.85647                  23169818.5454
        46.7504         31.2504
  23235174.8224    1524808.21149   1163693.37647                  23235174.1874
        45.7504         30.2504
  23747423.2114   -1748238.23849  -1343549.84746                  23747421.8524
        39.0004         23.5004
  21494445.1064   -1047133.45349   -798985.32748                  21494442.8514
        50.2504         39.5004
  20755510.7834     228712.90649    174591.64648                  20755506.7944
        52.0004         44.2504
  20710186.2754      52480.46949     40375.90048                  20710182.9644
        51.0004         43.5004
  21190859.8544    -558545.23449   -425913.07748                  21190854.7734
        52.7504         43.0004
  23672153.5754    1431437.54749   1097382.96647                  23672153.1834
        39.5004         27.5004
 04  7  1 16 19 20.0000000  0  8G 3G 6G14G15G18G21G22G26
  23164953.8854   -1264105.94949   -964927.69347                  23164952.4584
        46.2504         32.0004
  23241486.0284    1557976.52349   1189538.81147                  23241485.6284
        45.5004         28.7504
  23740122.3424   -1786607.76249  -1373448.15546                  23740120.1634
        38.5004         23.0004
  21490236.3904   -1069250.98449   -816219.76548                  21490234.1284
        51.0004         39.7504
  20756579.4764     234328.38349    178967.33648                  20756575.8094
        51.7504         44.0004
  20710545.0594      54365.37149     41844.65248                  20710541.5864
        51.0004         43.5004
  21188736.9324    -569702.83649   -434607.31448                  21188732.1064
        52.5004         42.7504
  23678177.1084    1463093.48849   1122049.90047                  23678176.6214
        40.2504         27.0004
 04  7  1 16 19 30.0000000  0  8G 3G 6G14G15G18G21G22G26
  23160094.7434   -1289640.78549   -984824.97947                  23160093.1924
        46.0004         31.2504
  23247800.3694    1591157.36349   1215393.94247                  23247800.0484
        45.5004         28.2504
  23732822.7334   -1824969.81449  -1403340.62546                  23732820.5574
        40.0004         24.5004
  21486029.2314   -1091360.19549   -833447.72047                  21486026.8684
        50.7504         38.7504
  20757652.2654     239967.10549    183361.14348                  20757648.8134
        52.2504         43.2504
  20710908.7254      56276.45749     43333.80748                  20710904.9224
        51.5004         42.5004
  21186618.9084    -580832.55949   -443279.82448                  21186613.7564
        53.2504         42.0004
  23684206.5034    1494779.35949   1146740.16747                  23684206.3294
        40.5004         27.5004
 04  7  1 16 19 40.0000000  0  8G 3G 6G14G15G18G21G22G26
  23155242.7604   -1315136.71949  -1004691.91847                  23155241.6504
        46.0004         32.2504
  23254117.6714    1624352.66049   1241260.39947                  23254116.5334
        45.2504         28.5004
  23725524.6704   -1863322.05949  -1433225.55247                  23725522.5184
        41.0004         25.7504
  21481824.0794   -1113458.86349   -850667.45048                  21481822.1064
        50.5004         40.2504
  20758730.0964     245631.11349    187774.66748                  20758726.1804
        51.5004         44.5004
  20711277.7634      58215.99649     44845.13348                  20711274.1984
        52.2504         43.5004
  21184506.7084    -591932.32449   -451928.98548                  21184501.6654
        53.0004         43.0004
  23690242.5304    1526497.18049   1171455.32547                  23690242.2114
        41.0004         28.5004
 04  7  1 16 19 50.0000000  0  8G 3G 6G14G15G18G21G22G26
  23150399.1804   -1340593.11349  -1024528.04747                  23150398.0454
        46.7504         31.7504
  23260437.0284    1657562.95749   1267138.54847                  23260436.2724
        45.5004         28.2504
  23718228.4724   -1901663.86749  -1463102.22547                  23718226.8434
        40.5004         26.5004
  21477621.2724   -1135546.37149   -867878.48848                  21477618.9394
        50.7504         40.2504
  20759812.7054     251320.85949    192208.22648                  20759809.0454
        52.0004         44.2504
  20711652.6264      60184.49649     46379.02548                  20711648.7334
        51.5004         43.2504
  21182400.2294    -603001.63349   -460554.41748                  21182395.3244
        52.5004         43.2504
  23696284.5544    1558247.39549   1196195.72747                  23696284.1064
        41.5004         27.2504
 04  7  1 16 20  0.0000000  0  8G 3G 6G14G15G18G21G22G26
  23145561.5754   -1366012.15249  -1044335.09747                  23145560.4974
        46.5004         32.5004
  23266758.6554    1690785.78949   1293026.43747                  23266757.9714
        44.7504         27.0004
  23710933.6084   -1939997.43749  -1492972.52947                  23710931.8314
        41.7504         27.2504
  21473419.6564   -1157624.90249   -885082.53648                  21473417.5584
        50.7504         40.2504
  20760900.2014     257034.08249    196660.08548                  20760896.7134
        52.5004         44.7504
  20712032.1524      62179.75849     47933.76548                  20712028.1524
        51.7504         43.7504
  21180299.3354    -614042.77749   -469157.90048                  21180294.3654
        52.7504         43.2504
  23702331.9404    1590027.53149   1220959.44347                  23702331.0214
        38.5004         28.0004
 04  7  1 16 20 10.0000000  0  8G 3G 6G14G15G18G21G22G26
  23140732.2054   -1391391.09449  -1064110.87347                  23140730.9204
        47.2504         32.5004
  23273083.7264    1724023.80949   1318926.20247                  23273082.3254
        45.0004         28.0004
  23703641.1974   -1978320.02349  -1522834.27047                  23703639.4304
        40.2504         26.0004
  21469220.2854   -1179691.80949   -902277.52548                  21469218.1404
        50.2504         40.2504
  20761992.1864     262773.38749    201132.26648                  20761988.5244
        52.0004         44.5004
  20712417.1944      64204.45749     49511.44348                  20712413.1564
        51.5004         43.7504
  21178204.2884    -625053.12149   -477737.38448                  21178198.7374
        52.7504         42.5004
  23708386.3444    1621840.14149   1245748.46647                  23708384.7094
        41.5004         28.2504
 04  7  1 16 20 20.0000000  0  8G 3G 6G14G15G18G21G22G26
  23135910.1924   -1416731.39149  -1083856.56047                  23135908.8174
        46.7504         32.0004
  23279411.2044    1757275.40649   1344836.50447                  23279410.5084
        45.0004         28.0004
  23696349.7604   -2016633.00449  -1552688.49547                  23696348.5534
        40.0004         27.5004
  21465023.1774   -1201748.49249   -919464.53848                  21465021.3874
        51.0004         39.7504
  20763088.9264     268537.21949    205623.55348                  20763085.4834
        52.0004         44.7504
  20712807.9814      66257.17249     51110.95648                  20712804.3344
        51.2504         43.2504
  21176114.4454    -636034.17649   -486294.05548                  21176109.3374
        53.0004         42.5004
  23714445.6094    1653683.71949   1270561.62547                  23714445.1414
        39.2504         28.0004
 04  7  1 16 20 30.0000000  0  8G 3G 6G14G15G18G21G22G26
  23131095.6414   -1442032.58649  -1103571.76347                  23131094.2034
        47.0004         32.2504
  23285742.0034    1790540.94549   1370757.67947                  23285741.0714
        45.0004         27.5004
  23689061.7164   -2054935.82449  -1582534.84047                  23689059.8234
        41.5004         26.7504
  21460828.1424   -1223794.50849   -936643.25548                  21460825.7014
        51.5004         40.0004
  20764190.4084     274325.93049    210134.25148                  20764187.0554
        52.0004         44.5004
  20713203.9914      68338.51649     52732.78148                  20713200.2964
        52.0004         43.5004
  21174030.5514    -646985.46949   -494827.52648                  21174025.3504
        53.0004         42.7504
  23720511.6174    1685558.50049   1295399.10647                  23720509.9134
        40.5004         26.7504
 04  7  1 16 20 40.0000000  0  8G 3G 6G14G15G18G21G22G26
  23126287.9894   -1467296.96149  -1123258.28147                  23126286.2104
        47.0004         32.5004
  23292074.1674    1823817.87549   1396687.70847                  23292073.7034
        44.5004         25.7504
  23681773.6064   -2093230.89549  -1612375.13547                  23681772.0674
        42.0004         25.7504
  21456634.2134   -1245832.28949   -953815.55048                  21456632.5054
        51.0004         39.7504
  20765296.4634     280137.01249    214662.35848                  20765292.5564
        52.2504         43.5004
  20713604.9964      70445.90249     54374.89048                  20713601.5594
        51.7504         43.0004
  21171951.9334    -657909.57849   -503339.81448                  21171946.7624
        52.2504         42.5004
  23726581.9664    1717461.87549   1320258.84147                  23726581.0934
        40.2504         26.2504
 04  7  1 16 20 50.0000000  0  8G 3G 6G14G15G18G21G22G26
  23121487.7374   -1492521.96949  -1142914.12547                  23121486.2664
        46.5004         31.5004
  23298409.2444    1857108.54349   1422628.46447                  23298408.6244
        44.2504         27.0004
  23674488.2754   -2131515.60949  -1642207.36947                  23674486.9724
        40.7504         26.5004
  21452442.8904   -1267859.25049   -970979.41348                  21452440.5174
        51.5004         40.2504
  20766406.9134     285972.87949    219209.79548                  20766402.8114
        52.0004         44.5004
  20714011.5744      72581.84849     56039.25948                  20714007.8984
        50.7504         44.0004
  21169878.2884    -668804.01249   -511828.97548                  21169873.7664
        52.5004         43.0004
  23732659.1224    1749396.36349   1345142.84647                  23732658.1884
        40.0004         27.0004
 04  7  1 16 21  0.0000000  0  8G 3G 6G14G15G18G21G22G26
  23116694.4384   -1517710.74249  -1162541.72647                  23116693.2074
        47.5004         32.5004
  23304746.4544    1890409.62549   1448577.35347                  23304745.7734
        44.2504         27.2504
  23667204.6834   -2169793.03949  -1672033.89947                  23667202.9914
        41.7504         27.2504
  21448252.3784   -1289878.50849   -988137.27348                  21448250.2884
        51.2504         40.0004
  20767521.5094     291830.37949    223774.07648                  20767517.6414
        52.0004         44.0004
  20714422.6954      74743.08649     57723.33348                  20714419.1924
        51.0004         43.7504
  21167810.4684    -679672.01249   -520297.55048                  21167805.4274
        52.7504         42.5004
  23738741.5494    1781358.45749   1370048.35847                  23738740.4514
        40.7504         27.2504
 04  7  1 16 21 10.0000000  0  8G 3G 6G14G15G18G21G22G26
  23111908.0404   -1542862.62949  -1182140.59247                  23111907.2904
        46.5004         32.7504
  23311085.3474    1923721.60249   1474534.71347                  23311084.4144
        44.2504         25.7504
  23659922.0504   -2208062.62949  -1701854.34647                  23659920.4544
        41.0004         27.2504
  21444063.8264   -1311889.58649  -1005288.75348                  21444061.3544
        51.2504         40.2504
  20768640.4114     297709.97349    228355.58148                  20768636.4614
        52.2504         44.5004
  20714839.2974      76930.23049     59427.59548                  20714835.3444
        52.0004         44.2504
  21165747.4424    -690513.05149   -528745.11148                  21165742.0314
        52.2504         43.2504
  23744828.4394    1813348.75849   1394975.84147                  23744827.8294
        39.2504         26.5004
 04  7  1 16 21 20.0000000  0  8G 3G 6G14G15G18G21G22G26
  23107129.5674   -1567976.68749  -1201709.97547                  23107127.8434
        47.5004         32.5004
  23317425.9844    1957045.32049   1500501.22747                  23317425.7954
        43.0004         26.2504
  23652641.6704   -2246323.30549  -1731667.87447                  23652639.6924
        42.0004         27.0004
  21439876.9054   -1333891.45749  -1022433.06148                  21439875.0624
        51.5004         40.5004
  20769763.6354     303612.42249    232954.88448                  20769760.1274
        52.5004         44.0004
  20715260.4524      79144.24249     61152.80348                  20715256.4724
        51.2504         43.7504
  21163689.7714    -701326.24249   -537170.97048                  21163684.3434
        52.5004         42.5004
  23750921.7834    1845367.92249   1419925.83647                  23750921.2084
        41.0004         26.2504
 04  7  1 16 21 30.0000000  0  8G 3G 6G14G15G18G21G22G26
  23102357.2004   -1593053.04749  -1221249.98747                  23102355.7894
        47.5004         33.2504
  23323769.7504    1990380.32849   1526476.53447                  23323769.9514
        42.5004         26.5004
  23645362.4664   -2284575.21549  -1761474.53747                  23645360.8194
        42.2504         26.5004
  21435692.0644   -1355884.29749  -1039570.34048                  21435689.4154
        51.2504         40.0004
  20770891.1744     309537.51649    237571.83548                  20770887.3204
        52.0004         43.7504
  20715686.7764      81384.97349     62898.82348                  20715683.3714
        52.2504         43.5004
  21161637.5154    -712111.86749   -545575.34748                  21161632.2374
        52.7504         43.0004
  23757019.8654    1877415.68049   1444898.10747                  23757019.5104
        39.0004         26.7504
 04  7  1 16 21 40.0000000  0  8G 3G 6G14G15G18G21G22G26
  23097592.3094   -1618092.09049  -1240760.94247                  23097591.4734
        47.5004         32.7504
  23330115.1804    2023726.14849   1552460.27547                  23330115.2684
        43.0004         26.0004
  23638084.8584   -2322818.75049  -1791274.68347                  23638083.4194
        41.5004         27.5004
  21431508.6074   -1377868.52049  -1056700.89748                  21431506.0184
        51.2504         40.5004
  20772022.7664     315484.64549    242205.96448                  20772018.8484
        52.0004         44.0004
  20716118.0644      83651.98449     64665.33848                  20716114.5764
        52.5004         43.5004
  21159590.0234    -722870.35549   -553958.58348                  21159584.9934
        52.5004         43.5004
  23763123.8824    1909491.40249   1469892.10447                  23763123.1544
        41.0004         27.0004
 04  7  1 16 21 50.0000000  0  8G 3G 6G14G15G18G21G22G26
  23092835.8564   -1643090.14149  -1260239.92247                  23092834.0584
        46.5004         33.0004
  23336463.4204    2057086.35949   1578455.17946                  23336463.5684
        42.5004         24.7504
  23630809.5924   -2361050.18049  -1821065.41247                  23630807.6634
        41.0004         25.7504
  21427327.4684   -1399840.44549  -1073821.88648                  21427325.2634
        51.0004         40.2504
  20773159.3654     321457.42249    246860.07148                  20773156.0024
        52.5004         43.5004
  20716555.3724      85948.88749     66455.13248                  20716551.6074
        51.5004         43.0004
  21157548.7044    -733598.19549   -562317.93548                  21157543.4934
        52.2504         42.5004
  23769233.9874    1941598.59049   1494910.69647                  23769232.9034
        38.5004         26.5004
